User: anonymous   Login
Location: Unspecified
(0.0000°N, 0.0000°E)
Time: 10:03:51
(UTC+00:00)
Language:

STARLINK-35587 - Orbit

View from above orbital plane
View from above orbital plane
View from above satellite
View from above satellite

Ground track
Ground track

The orbit is defined by the following mean orbital elements,

1 66158U          26145.47506024 +.00000000 +00000-0 +82313-3 0 00005
2 66158  53.1577  66.2214 0001004  81.0136 279.0978 15.30209891    01
Epoch (UTC): 25 May 2026 11:24:05
Eccentricity: 0.0001004
inclination: 53.1577°
perigee height: 474 km
apogee height: 476 km
right ascension of ascending node: 66.2214°
argument of perigee: 81.0136°
revolutions per day: 15.30209891
mean anomaly at epoch: 279.0978°

The dashed part of the orbit path shows where the satellite is in the earth's shadow,  

DLR